BTK7682 ZSNB-WAMM

Flight info

Callsign BTK7682
Flight time N/A
Altitude 34700
Route SHZ81D SHZ B221 LJG A470 BEBEM/N0477F347 A470 MAGOG A1 ELATO V525 AKEKU DCT SANRO M646 MIA A461 VERDE W24 TAPER TR21 CT TR13 IOO B472 ALDIN G578 ZAM A461 NITIP
Aircraft B738/M-SDE2E3FGHIRWXY/LB1

Departure

Time 2026-05-04 12:52
Airport Ningbo Lishe International Airport (ZSNB)

Arrival

Time N/A
Airport Sam Ratulangi International Airport (WAMM)
Time Latitude Longitude Altitude Speed Heading
2026-05-04 12:37 29.82478 121.45486 21 ft 0 kts 225°
2026-05-04 12:43 29.82486 121.45495 21 ft 2 kts 225°
2026-05-04 12:44 29.82496 121.45507 21 ft 2 kts 225°
2026-05-04 12:44 29.82507 121.45519 21 ft 2 kts 225°
2026-05-04 12:44 29.82517 121.45531 21 ft 2 kts 225°
2026-05-04 12:44 29.82527 121.45544 21 ft 2 kts 225°
2026-05-04 12:45 29.82538 121.45556 21 ft 2 kts 225°
2026-05-04 12:45 29.82548 121.45568 21 ft 2 kts 225°
2026-05-04 12:45 29.82559 121.45580 21 ft 2 kts 225°
2026-05-04 12:45 29.82568 121.45592 21 ft 1 kts 232°
2026-05-04 12:46 29.82572 121.45606 21 ft 2 kts 267°
2026-05-04 12:46 29.82569 121.45622 21 ft 2 kts 300°
2026-05-04 12:46 29.82560 121.45636 21 ft 2 kts 304°
2026-05-04 12:46 29.82552 121.45651 21 ft 2 kts 302°
2026-05-04 12:47 29.82544 121.45665 21 ft 2 kts 303°
2026-05-04 12:47 29.82542 121.45668 21 ft 0 kts 302°
2026-05-04 12:49 29.82544 121.45665 21 ft 2 kts 302°
2026-05-04 12:49 29.82559 121.45647 21 ft 5 kts 335°
2026-05-04 12:49 29.82658 121.45705 21 ft 27 kts 31°
2026-05-04 12:49 29.82798 121.45646 21 ft 24 kts 300°
2026-05-04 12:50 29.82927 121.45414 21 ft 44 kts 304°
2026-05-04 12:50 29.83141 121.45044 21 ft 64 kts 303°
2026-05-04 12:50 29.83358 121.44717 21 ft 25 kts
2026-05-04 12:50 29.83439 121.44817 21 ft 14 kts 60°
2026-05-04 12:51 29.83408 121.44921 21 ft 17 kts 124°
2026-05-04 12:51 29.83254 121.45194 21 ft 74 kts 123°
2026-05-04 12:51 29.82848 121.45907 21 ft 136 kts 123°
2026-05-04 12:51 29.82230 121.46989 112 ft 177 kts 124°
2026-05-04 12:52 29.81581 121.48055 939 ft 157 kts 127°
2026-05-04 12:52 29.80931 121.49112 1313 ft 174 kts 122°
2026-05-04 12:52 29.80269 121.50365 1736 ft 189 kts 123°
2026-05-04 12:52 29.79557 121.51635 2340 ft 193 kts 124°
2026-05-04 12:53 29.78816 121.52937 2952 ft 197 kts 124°
2026-05-04 12:53 29.78064 121.54253 3564 ft 199 kts 124°
2026-05-04 12:53 29.77301 121.55585 4172 ft 201 kts 124°
2026-05-04 12:53 29.76534 121.56923 4759 ft 203 kts 124°
2026-05-04 12:54 29.75657 121.58186 5309 ft 204 kts 140°
2026-05-04 12:54 29.74409 121.58923 5852 ft 204 kts 166°
2026-05-04 12:54 29.73017 121.59006 6385 ft 206 kts 188°
2026-05-04 12:54 29.71692 121.58386 6888 ft 209 kts 211°
2026-05-04 12:55 29.70466 121.57452 7274 ft 221 kts 211°
2026-05-04 12:55 29.69093 121.56437 7501 ft 245 kts 211°
2026-05-04 12:55 29.67612 121.55335 7889 ft 263 kts 211°
2026-05-04 12:55 29.66099 121.54058 8254 ft 284 kts 224°
2026-05-04 12:56 29.65076 121.52037 8702 ft 302 kts 255°
2026-05-04 12:56 29.64976 121.49642 9435 ft 308 kts 272°
2026-05-04 12:56 29.65046 121.47144 10118 ft 314 kts 267°
2026-05-04 12:56 29.64986 121.44634 10878 ft 317 kts 267°
2026-05-04 12:57 29.64960 121.42114 11556 ft 322 kts 268°
2026-05-04 12:57 29.64956 121.39532 12279 ft 325 kts 268°
2026-05-04 12:57 29.64952 121.36943 12962 ft 329 kts 268°
2026-05-04 12:57 29.64949 121.34313 13642 ft 331 kts 268°
2026-05-04 12:58 29.64948 121.31634 14300 ft 334 kts 268°
2026-05-04 12:58 29.64948 121.28960 14936 ft 337 kts 268°
2026-05-04 12:58 29.64737 121.26266 15495 ft 339 kts 252°
2026-05-04 12:58 29.63677 121.23872 16043 ft 338 kts 227°
2026-05-04 12:59 29.61822 121.22285 16603 ft 337 kts 204°
2026-05-04 12:59 29.59667 121.21214 17200 ft 339 kts 204°
2026-05-04 12:59 29.57579 121.19988 17689 ft 343 kts 208°
2026-05-04 12:59 29.55525 121.18665 18208 ft 346 kts 209°
2026-05-04 13:00 29.53372 121.17292 18723 ft 349 kts 208°
2026-05-04 13:00 29.51240 121.15932 19232 ft 351 kts 209°
2026-05-04 13:00 29.49098 121.14555 19726 ft 354 kts 209°
2026-05-04 13:00 29.46961 121.13175 20184 ft 357 kts 209°
2026-05-04 13:01 29.44811 121.11789 20665 ft 358 kts 209°
2026-05-04 13:01 29.42628 121.10382 21102 ft 361 kts 209°
2026-05-04 13:01 29.40444 121.08974 21531 ft 364 kts 209°
2026-05-04 13:01 29.38224 121.07542 21969 ft 366 kts 209°
2026-05-04 13:02 29.36024 121.06126 22378 ft 368 kts 209°
2026-05-04 13:02 29.33780 121.04680 22782 ft 370 kts 209°
2026-05-04 13:02 29.31545 121.03240 23184 ft 372 kts 209°
2026-05-04 13:02 29.29296 121.01794 23544 ft 374 kts 209°
2026-05-04 13:03 29.27019 121.00328 23930 ft 376 kts 210°
2026-05-04 13:03 29.24730 120.98856 24286 ft 378 kts 210°
2026-05-04 13:03 29.22455 120.97395 24651 ft 380 kts 210°
2026-05-04 13:03 29.20151 120.95915 24996 ft 382 kts 210°
2026-05-04 13:04 29.17842 120.94432 25327 ft 383 kts 210°
2026-05-04 13:04 29.15519 120.92942 25761 ft 382 kts 210°
2026-05-04 13:04 29.13218 120.91466 26156 ft 381 kts 210°
2026-05-04 13:04 29.10893 120.89976 26567 ft 380 kts 210°
2026-05-04 13:05 29.08611 120.88514 26876 ft 380 kts 209°
2026-05-04 13:05 29.06296 120.87032 27205 ft 381 kts 208°
2026-05-04 13:05 29.03967 120.85541 27436 ft 383 kts 208°
2026-05-04 13:05 29.01629 120.84048 27520 ft 390 kts 208°
2026-05-04 13:06 28.99279 120.82546 27680 ft 393 kts 208°
2026-05-04 13:06 28.96890 120.81019 27848 ft 397 kts 208°
2026-05-04 13:06 28.94461 120.79468 28040 ft 399 kts 208°
2026-05-04 13:06 28.92049 120.77928 28289 ft 400 kts 208°
2026-05-04 13:07 28.89602 120.76372 28503 ft 402 kts 207°
2026-05-04 13:07 28.87109 120.75015 28705 ft 403 kts 200°
2026-05-04 13:07 28.84417 120.74039 28912 ft 404 kts 191°
2026-05-04 13:07 28.81655 120.73576 29128 ft 404 kts 184°
2026-05-04 13:08 28.78892 120.73308 29349 ft 405 kts 184°
2026-05-04 13:08 28.76074 120.72997 29529 ft 407 kts 185°
2026-05-04 13:08 28.73283 120.72663 29727 ft 408 kts 185°
2026-05-04 13:08 28.70445 120.72335 29921 ft 409 kts 185°
2026-05-04 13:09 28.67643 120.72026 30107 ft 410 kts 185°
2026-05-04 13:09 28.64801 120.71733 30292 ft 412 kts 184°
2026-05-04 13:09 28.61959 120.71448 30473 ft 413 kts 184°
2026-05-04 13:09 28.60060 120.71256 30591 ft 414 kts 184°